Jenks, OK

6:37 PM CST on February 24, 2017 (GMT -0600)
Jones Jr.

Weather History for KRVS - April, 2013

Change the Weather History Date:

Tuesday, April 23, 2013

  Actual Average (KTUL) Record (KTUL)
Temperature  
Mean Temperature 50 °F -  
Max Temperature 64 °F 74 °F 93 °F (1958)
Min Temperature 37 °F 51 °F 36 °F (1909)
Degree Days  
Heating Degree Days 14    
Moisture  
Dew Point 40 °F    
Average Humidity 87    
Maximum Humidity 94    
Minimum Humidity 65    
Precipitation  
Precipitation 0.18 in - - ()
Sea Level Pressure  
Sea Level Pressure 30.05 in    
Wind  
Wind Speed 9 mph (North)    
Max Wind Speed 15 mph    
Max Gust Speed 24 mph    
Visibility 8 miles    
Events Rain , Thunderstorm    
Averages and records for this station are not official NWS values.
T = Trace of Precipitation, MM = Missing Value Source: NWS Daily Summary

Daily Weather History Graph

Daily Weather History Graph

Search for Another Location

Airport or City:

Trip Planner

Search our weather history database for the weather conditions in past years. The results will help you decide how hot, cold, wet, or windy it might be!

Date:

Astronomy

Apr. 23, 2013 Rise Set
Actual Time 6:40 AM CDT 8:04 PM CDT
Civil Twilight 6:13 AM CDT 8:31 PM CDT
Nautical Twilight 5:41 AM CDT 9:03 PM CDT
Astronomical Twilight 5:07 AM CDT 9:37 PM CDT
Moon 6:03 PM CDT (4/23) 5:04 AM CDT (4/23)
Length of Visible Light 14h 18m
Length of Day
13h 24m
Waxing Gibbous, 94% of the Moon is Illuminated
Apr 23
Waxing Gibbous
Apr 25
Full
May 2
Last Quarter
May 9
New
May 17
First Quarter

Hourly Weather History & Observations

Time (CDT) Temp. Windchill Dew Point Humidity Pressure Visibility Wind Dir Wind Speed Gust Speed Precip Events Conditions
12:53 AM 64.9 °F - 53.1 °F 65% 29.91 in 10.0 mi South 8.1 mph - 0.03 in Rain Light Rain
1:53 AM 63.0 °F - 51.1 °F 65% 29.88 in 10.0 mi South 6.9 mph - 0.00 in   Clear
2:45 AM 62.6 °F - 51.8 °F 68% 29.85 in 10.0 mi SSW 6.9 mph - N/A Thunderstorm Thunderstorm
2:53 AM 61.0 °F - 51.1 °F 70% 29.87 in 4.0 mi Calm Calm - 0.04 in Rain , Thunderstorm Light Thunderstorms and Rain
3:53 AM 60.1 °F - 53.1 °F 78% 29.85 in 10.0 mi WNW 4.6 mph - 0.03 in   Overcast
4:53 AM 57.9 °F - 55.0 °F 90% 29.87 in 10.0 mi Calm Calm - 0.01 in Rain Light Rain
5:17 AM 55.4 °F - 53.6 °F 94% 29.88 in 8.0 mi North 15.0 mph 24.2 mph 0.01 in Rain Light Rain
5:26 AM 51.8 °F - 50.0 °F 94% 29.89 in 10.0 mi North 11.5 mph 19.6 mph 0.01 in Rain Light Rain
5:53 AM 50.0 °F - 48.0 °F 93% 29.91 in 6.0 mi North 10.4 mph - 0.02 in Rain Light Rain
6:53 AM 46.0 °F 40.6 °F 43.0 °F 89% 29.95 in 10.0 mi North 11.5 mph - 0.01 in   Overcast
7:53 AM 44.1 °F 40.1 °F 41.0 °F 89% 29.99 in 6.0 mi North 6.9 mph 19.6 mph 0.00 in Rain Light Rain
8:51 AM 42.8 °F 37.0 °F 41.0 °F 93% 29.99 in 6.0 mi North 10.4 mph 17.3 mph 0.01 in Rain Light Rain
8:53 AM 43.0 °F 36.4 °F 39.9 °F 89% 30.02 in 6.0 mi North 12.7 mph 18.4 mph 0.01 in Rain Light Rain
9:17 AM 42.8 °F 38.6 °F 41.0 °F 93% 30.00 in 5.0 mi North 6.9 mph - 0.01 in Rain Light Rain
9:53 AM 42.1 °F 34.9 °F 39.0 °F 89% 30.04 in 6.0 mi NNE 13.8 mph 19.6 mph 0.01 in Rain Light Rain
10:43 AM 41.0 °F 33.5 °F 39.2 °F 93% 30.03 in 5.0 mi NNE 13.8 mph 23.0 mph 0.00 in Rain Light Rain
10:53 AM 41.0 °F 35.8 °F 39.0 °F 93% 30.04 in 3.0 mi North 8.1 mph - 0.00 in Rain Light Rain
11:16 AM 41.0 °F 33.5 °F 37.4 °F 87% 30.05 in 4.0 mi North 13.8 mph 20.7 mph 0.01 in Rain Light Rain
11:35 AM 41.0 °F 34.7 °F 37.4 °F 87% 30.06 in 4.0 mi North 10.4 mph 18.4 mph 0.01 in Rain Light Rain
11:45 AM 41.0 °F 35.8 °F 37.4 °F 87% 30.06 in 3.0 mi North 8.1 mph - 0.01 in Rain Light Rain
11:53 AM 39.9 °F 32.9 °F 37.9 °F 93% 30.07 in 4.0 mi NNW 11.5 mph 20.7 mph 0.01 in Rain Light Rain
12:43 PM 39.2 °F 32.0 °F 37.4 °F 93% 30.07 in 7.0 mi North 11.5 mph 20.7 mph 0.00 in Rain Light Rain
12:53 PM 39.9 °F 32.1 °F 37.0 °F 89% 30.08 in 10.0 mi North 13.8 mph 23.0 mph 0.00 in Rain Light Rain
12:56 PM 39.2 °F 33.6 °F 37.4 °F 93% 30.07 in 10.0 mi North 8.1 mph 23.0 mph N/A   Overcast
1:15 PM 39.2 °F 33.6 °F 37.4 °F 93% 30.06 in 5.0 mi North 8.1 mph 17.3 mph 0.00 in Rain Light Rain
1:26 PM 39.2 °F 33.0 °F 37.4 °F 93% 30.06 in 10.0 mi NNW 9.2 mph 18.4 mph 0.00 in Rain Light Rain
1:53 PM 39.9 °F 33.9 °F 37.9 °F 93% 30.08 in 9.0 mi North 9.2 mph - 0.00 in   Overcast
2:07 PM 39.2 °F 32.5 °F 37.4 °F 93% 30.07 in 9.0 mi North 10.4 mph 19.6 mph 0.01 in Rain Light Rain
2:53 PM 41.0 °F 34.3 °F 37.0 °F 86% 30.09 in 10.0 mi North 11.5 mph 18.4 mph 0.01 in   Overcast
3:53 PM 39.9 °F 33.9 °F 36.0 °F 86% 30.09 in 10.0 mi North 9.2 mph 18.4 mph 0.00 in   Overcast
4:53 PM 39.9 °F 34.5 °F 36.0 °F 86% 30.10 in 10.0 mi North 8.1 mph 18.4 mph 0.00 in   Overcast
5:53 PM 39.0 °F 33.4 °F 35.1 °F 86% 30.13 in 9.0 mi NNW 8.1 mph 17.3 mph 0.00 in Rain Light Rain
6:32 PM 39.2 °F 32.5 °F 33.8 °F 81% 30.12 in 10.0 mi North 10.4 mph 18.4 mph 0.00 in   Overcast
6:53 PM 37.9 °F 31.5 °F 34.0 °F 86% 30.14 in 10.0 mi NNW 9.2 mph - 0.00 in Rain Light Rain
7:53 PM 37.9 °F 31.5 °F 33.1 °F 83% 30.17 in 10.0 mi North 9.2 mph 16.1 mph 0.00 in   Overcast
8:23 PM 37.4 °F 31.4 °F 33.8 °F 87% 30.16 in 10.0 mi North 8.1 mph - N/A   Overcast
8:53 PM 37.0 °F 30.4 °F 34.0 °F 89% 30.19 in 10.0 mi NNW 9.2 mph - N/A   Overcast
9:36 PM 37.4 °F 29.8 °F 33.8 °F 87% 30.18 in 10.0 mi North 11.5 mph 19.6 mph N/A   Overcast
9:53 PM 37.9 °F 32.7 °F 33.1 °F 83% 30.22 in 10.0 mi North 6.9 mph 18.4 mph N/A   Overcast
10:21 PM 37.4 °F 31.4 °F 33.8 °F 87% 30.21 in 10.0 mi NNW 8.1 mph - N/A   Overcast
10:53 PM 37.9 °F 31.5 °F 33.1 °F 83% 30.24 in 10.0 mi NNW 9.2 mph - N/A   Overcast
11:53 PM 37.9 °F 32.7 °F 32.0 °F 79% 30.25 in 10.0 mi NNW 6.9 mph 17.3 mph N/A   Overcast